Tracking 25612 objects as of 20-May-2022
HD Live streaming from Space Station
objects crossing your sky now

COSMOS 2251 DEB

Track COSMOS 2251 DEB now!
10-day predictions


NORAD ID: 34054
Int'l Code: 1993-036JR
Perigee: 679.1 km
Apogee: 723.9 km
Inclination: 74.0 °
Period: 98.7 minutes
Semi major axis: 7072 km
RCS: 0.028 m2 (small)
Launch date: June 16, 1993
Source: Commonwealth of Independent States (former USSR) (CIS)
Launch site: PLESETSK MISSILE AND SPACE COMPLEX (PKMTR)

Note: This is SATELLITE DEBRIS
aabbcc
Your satellite tracking list
Your tracking list is empty




NASA's NSSDC Master Catalog

Two Line Element Set (TLE):
1 34054U 93036JR  22140.44618410  .00007415  00000-0  15514-2 0  9999
2 34054  74.0366 270.9976 0031608 340.0421  80.9143 14.59631467702354
Source of the keplerian elements: AFSPC